Location: Observatorio Las Palmas
(29.0667°N, 110.9333°W)
Time: 04:53:44
(UTC-07:00)

Daily predictions for brighter satellites

Satellite Brightness Start Highest point End
(mag) Time Altitude Azimuth Time Altitude Azimuth Time Altitude Azimuth
CZ-3C R/B 4.1 03:34:32 45° S 03:37:00 49° SSE 04:40:00 10° E
CZ-3 R/B 3.8 03:23:39 10° SW 03:55:19 48° SSE 04:03:06 10° E
USA 215 3.7 04:13:04 10° NE 04:19:27 55° SE 04:20:10 53° SSE
Lacrosse 5 4.2 04:24:03 16° NE 04:24:03 16° NE 04:25:03 10° NE
Cosmos 2074 Rocket 3.9 04:44:57 10° S 04:51:13 84° E 04:57:30 10° N
Cosmos 44 3.7 04:59:50 10° SSW 05:05:11 69° ESE 05:10:27 10° NNE
Cosmos 2184 Rocket 3.8 05:03:27 10° SSW 05:09:33 70° W 05:15:44 10° N
Skynet4D Del rocket 4.0 05:11:11 41° SW 05:12:40 54° SSE 05:17:52 10° E
NOAA 6 4.1 05:08:38 10° NNE 05:13:45 75° ESE 05:18:53 10° S
IUS-13 SRM-1 4.0 05:16:39 17° SSE 05:16:39 17° SSE 05:17:48 10° SE
Cosmos 1536 Rocket 3.4 05:20:26 59° NNW 05:21:12 78° W 05:25:32 10° S
Cosmos 1633 2.9 05:17:55 10° S 05:21:32 64° E 05:25:08 10° NNE
Cosmos 1943 3.2 05:16:01 10° SSW 05:21:36 83° ESE 05:27:15 10° NNE
Cosmos 921 Rocket 3.0 05:24:13 59° WNW 05:24:46 66° WSW 05:29:13 10° S
USA 229 DEB 4.0 05:18:04 10° SSW 05:24:51 68° ESE 05:31:43 10° NE
USA 229 4.0 05:18:11 10° SSW 05:24:58 67° ESE 05:31:48 10° NE
Cosmos 2154 Rocket 4.1 05:19:21 10° S 05:25:33 77° E 05:31:44 10° N
Meteor 1-18 Rocket 4.4 05:26:08 32° NW 05:28:35 52° W 05:34:16 10° SSW
Thor Agena Rocket 3.8 05:28:53 10° S 05:33:38 43° W 05:34:45 38° WNW
Okean 1 Rocket 2.9 05:31:18 10° S 05:35:42 74° W 05:40:04 10° N
Gbstr 26 Del rocket 4.1 05:37:24 27° SW 05:37:24 27° SW 05:40:42 10° S
COSMO-SKYMED 1 2.8 05:38:40 10° SSE 05:42:58 69° ENE 05:47:16 10° N
Cosmos 2056 Rocket 3.3 05:40:01 14° NNW 05:44:24 84° WSW 05:49:29 10° SSE
Cosmos 1238 Rocket 4.3 05:43:22 26° NW 05:45:34 36° W 05:51:12 10° SSW
Cosmos 1602 4.2 05:46:58 10° SSW 05:50:40 39° W 05:54:24 10° NNW
Ariane Rocket 2.9 05:51:26 10° N 05:56:30 78° WNW 06:01:32 10° SSW
Cosmos 1624 Rocket 4.1 05:53:13 13° NNW 05:57:45 55° WSW 06:02:55 10° S
ASTRO E2 2.6 05:56:26 24° W 05:58:45 80° NNW 06:02:48 10° ENE
Cosmos 1300 Rocket 4.4 05:56:05 10° SW 05:59:51 27° W 06:03:37 10° NNW
USA 215 3.9 05:56:27 10° NNE 06:02:09 34° NW 06:07:36 11° W
Meteor 1-28 Rocket 3.8 05:58:47 10° SSE 06:02:29 58° ENE 06:06:14 10° N
Lacrosse 5 3.5 06:03:20 15° NW 06:03:22 15° NW 06:06:18 10° N
Okean 1-7 Rocket 3.5 06:01:10 10° N 06:05:32 71° W 06:09:53 10° S
Meteor 1-19 Rocket 4.2 06:04:50 10° NNW 06:10:35 67° W 06:16:14 10° S
Meteor 1-11 Rocket 4.3 06:08:31 10° SW 06:13:53 37° WNW 06:19:10 10° NNW
Cosmos 2218 Rocket 4.4 06:09:22 10° S 06:15:43 73° E 06:22:06 10° N
Cosmos 1461 3.6 06:12:40 10° SSW 06:17:02 62° ESE 06:21:14 10° NE
Cosmos 1295 Rocket 4.5 06:10:52 10° SSW 06:17:08 69° W 06:23:23 10° N
GRACE-1 4.4 06:14:56 10° N 06:17:41 61° E 06:20:27 10° S
Cosmos 1346 Rocket 4.4 06:17:06 15° WNW 06:18:11 16° W 06:20:42 10° SW
Cosmos 1340 3.9 06:15:40 10° N 06:19:17 44° E 06:22:54 10° SSE
Tiangong 2 3.7 06:18:52 10° N 06:19:46 11° NNE 06:20:40 10° NNE
Nadezhda 3 Rocket 4.3 06:19:42 10° NNW 06:25:44 46° W 06:31:45 10° SSW
Cosmos 2084 3.7 06:22:11 10° SW 06:25:51 37° WNW 06:29:26 10° N
IDEFIX/ARIANE 42P 3.4 06:21:11 10° NNE 06:26:17 57° E 06:31:24 10° S
Cosmos 1455 Rocket 3.3 06:22:49 10° S 06:27:07 75° E 06:31:26 10° N
CSL-04 Rocket 3.9 06:23:08 10° N 06:28:25 48° WNW 06:33:37 10° SW
Atlas Centaur 2 4.1 06:23:21 10° SW 06:31:00 42° SSE 06:37:35 10° E
USA 129 1.6 06:29:16 10° SSE 06:31:15 81° ENE 06:33:23 10° N
Cosmos 1452 Rocket 3.5 06:28:22 10° NNW 06:33:37 71° WSW 06:38:51 10° S
CSL-04 Debris 4.4 06:29:21 10° N 06:34:37 50° WNW 06:39:53 10° SSW
Meteor 1-23 Rocket 4.2 06:30:37 10° NNW 06:36:07 64° W 06:41:36 10° S
COSMOS 2406 3.6 06:30:41 10° S 06:36:18 71° ESE 06:41:56 10° NNE
